Home   Weather   Saguenay   Past weeks

Flag for Canada Past Weather in Saguenay, Quebec, Canada — Yesterday and Last 2 Weeks

Now
32 °F

Chilly.


Feels Like: 21 °F
Forecast: 14 / 32 °F
Wind: 17 mph from Southwest

Location: Jonquiere Airport

Current Time: Feb 27, 2017 at 11:06:20 am

Latest Report: Feb 27, 2017 at 10:00 am


Visibility: N/A

Pressure: 29.83 "Hg

Humidity: 70%

Dew Point: 23 °F

Location of SaguenayLocation

Past Weather in Saguenay — Graph

°F

Saguenay Temperature Yesterday

Maximum temperature yesterday: 37 °F (at 12:00 am)
Minimum temperature yesterday: 17 °F (at 8:00 pm)
Average temperature yesterday: 24 °F

High & Low Weather Summary for the Past Weeks

 TemperatureHumidityPressure
High42 °F (Feb 22, 3:00 pm)100% (Feb 23, 6:00 am)30.46 "Hg (Feb 23, 6:00 am)
Low-1 °F (Feb 12, 9:00 am)42% (Feb 20, 5:00 pm)29.31 "Hg (Feb 18, 5:00 pm)
Average23 °F76%29.81 "Hg
* Reported Feb 12 9:00 am — Feb 27 9:00 am, Saguenay, Weather by CustomWeather, © 2017

Note: Actual official high and low records may vary slightly from our data, if they occured in-between our weather recording intervals... More about our weather records

Advertising

Saguenay Weather History for the Previous 24 Hours

Scroll right to see more
 ConditionsComfort  
Time TempWeatherWind HumidityBarometerVisibility
9:00 am
Mon, Feb 27
31 °FChilly.20 mph71%29.83 "HgN/A
8:00 am29 °FChilly.18 mph72%29.82 "HgN/A
7:00 am29 °FChilly.24 mph71%29.79 "HgN/A
6:00 am28 °FChilly.25 mph71%29.77 "HgN/A
5:00 am27 °FChilly.18 mph79%29.79 "HgN/A
4:00 am27 °FChilly.15 mph71%29.79 "HgN/A
3:00 am27 °FChilly.16 mph71%29.80 "HgN/A
2:00 am24 °FCold.5 mph74%29.83 "HgN/A
1:00 am20 °FCold.5 mph69%29.85 "HgN/A
12:00 am18 °FCold.7 mph77%29.86 "HgN/A
11:00 pm
Sun, Feb 26
18 °FCold.2 mph73%29.88 "HgN/A
10:00 pm18 °FCold.2 mph74%29.89 "HgN/A
9:00 pm18 °FCold.6 mph75%29.89 "HgN/A
8:00 pm17 °FCold.6 mph75%29.88 "HgN/A
7:00 pm19 °FCold.7 mph65%29.88 "HgN/A
6:00 pm21 °FCold.12 mph61%29.85 "HgN/A
5:00 pm22 °FCold.14 mph60%29.82 "HgN/A
4:00 pm22 °FCold.21 mph61%29.78 "HgN/A
3:00 pm21 °FCold.22 mph64%29.75 "HgN/A
2:00 pm20 °FCold.18 mph69%29.72 "HgN/A
1:00 pm19 °FCold.21 mph69%29.69 "HgN/A
12:00 pm18 °FCold.22 mph70%29.67 "HgN/A
11:00 am19 °FCold.23 mph68%29.65 "HgN/A
Weather by CustomWeather, © 2017

See weather overviewHow to use our weather pages